{"data":{"norad_id":50503,"intl_designator":"2021-132AL","name":"ONEWEB-0440","alt_names":[],"object_type":"PAYLOAD","status":"ACTIVE","operator":null,"country":"UK","launch_date":"2021-12-27","launch_site_code":"TYMSC","launch_vehicle":null,"mission":null,"orbit_class":"UNKNOWN","rcs_meters":null,"size_class":null,"mass_kg":null,"dimensions":null,"purposes":["comms"],"wikipedia_slug":null,"has_3d_model":false,"image_url":null,"decayed_at":null,"tle_current":{"epoch":"2026-09-19T23:10:32.087424Z","epoch_age_seconds":72049,"freshness":"FRESH","line1":"1 50503U 21132AL  26262.96564916 -.00000269  00000+0 -71553-3 0  9998","line2":"2 50503  87.9162 316.6245 0002179  89.7171 270.4211 13.18684827234067","mean_motion":13.18684827,"eccentricity":0.0002179,"inclination_deg":87.9162,"raan_deg":316.6245,"arg_perigee_deg":89.7171,"mean_anomaly_deg":270.4211,"bstar":-0.00071553,"rev_number":23406,"period_min":109.1997094769,"perigee_km":1188.0985726759,"apogee_km":1191.396656791,"semimajor_km":7567.8846147334,"source":"CELESTRAK","updated_at":"2026-09-20T09:00:44.707010Z"}}}